World > North America > United States > Iowa > Clarksville  

Clarksville, IA Hourly Weather Updates

Feedback E-mail the Weather

Quick Clicks

Clarksville, IA Weather Maps

°F °C°F °C
Clarksville Weather Map
UTC Time: 7/22/2024, 22:24
Your Time:

Clarksville, IA Regional Weather

Expires:202407222300;;123200
ASUS43 KDMX 222206
RWRIA 

WEATHER ROUNDUP FOR IOWA
NATIONAL WEATHER SERVICE DES MOINES IA
500 PM CDT MON JUL 22 2024

NOTE: "FAIR" INDICATES FEW OR NO CLOUDS BELOW 12,000 FEET WITH NO
SIGNIFICANT WEATHER AND/OR OBSTRUCTIONS TO VISIBILITY.

* - THESE STATIONS ARE NOT NWS STATIONS...THUS NOT UNDER NWS
QUALITY CONTROL.  THEY ALSO DO NOT REPORT WEATHER SUCH 
AS PRECIPITATION OR FOG.  


IAZ007>011-017>019-026>030-037>042-050>054-066-222300-
   NORTHEAST IOWA
  
CITY           SKY/WX    TMP DP  RH WIND       PRES   REMARKS
CEDAR RAPIDS   MOSUNNY   83  67  58 VRB6      29.99F HX  85  TC  28   
CHARLES CITY * SUNNY     81  64  57 SW8       29.99F HX  82  TC  27   
CLINTON *      RAIN      74  70  87 N6        30.01R TC  23           
DECORAH *      MOSUNNY   79  66  65 VRB3      29.98S HX  81  TC  26   
DUBUQUE        MOSUNNY   79  67  66 W6        30.00F HX  81  TC  26   
MONTICELLO *   PTSUNNY   82  68  61 W7        29.97F HX  85  TC  28   
OELWEIN *      SUNNY     81  64  57 SW7       29.99F HX  82  TC  27   
WATERLOO       MOSUNNY   83  65  54 SW3       29.98F HX  85  TC  28   
$$
 

SKY/WX - Weather  TMP - Temperature  DP - Dew Point  RH - Humidity
WIND - Wind Direction/Speed PRES - Barometric Pressure VSB - Visibility
WCI - Wind Chill Index E13G22 Wind - East Wind 13 mph/Gusts of 22 mph

Trending Headlines

Trending Entertainment Headlines

Clarksville Radar Loop

Use the map search tool if you want to place a location marker on the radar map...

Clarksville Quick Facts

National Two Day Weather Forecast


E-mail the Clarksville Weather Forecast

Voice your opinion or tell us about page issues...